Location: El Bakhil
(32.7726°N, 5.5387°W)
Time: 04:40:08
(UTC+00:00)

Cosmos 968 Rocket - Pass Details

Date: 03 March 2021
Orbit: 740 x 771 km, 74.0° (Epoch: 12 April)

Event Time Altitude Azimuth Distance (km) Brightness Sun altitude
Rises 19:32:54 0° 339° (NNW) 3,246 7.1 -15.9°
Reaches altitude 10° 19:35:18 10° 336° (NNW) 2,317 6.3 -16.4°
Maximum altitude 19:40:29 62° 257° (WSW) 867 4.0 -17.5°
Drops below altitude 10° 19:45:39 10° 177° (S) 2,302 5.9 -18.6°
Sets 19:48:02 0° 174° (S) 3,222 6.6 -19.1°
